Location: Marcé
(47.5801°N, 0.3280°W)
Time: 20:07:23
(UTC+01:00)

Vanguard 3 - Pass Details

Date: 13 December 2021
Orbit: 508 x 3260 km, 33.3° (Epoch: 17 January)

Event Time Altitude Azimuth Distance (km) Brightness Sun altitude
Rises 04:58:57 0° 260° (W) 6,617 - -36.3°
Reaches altitude 10° 05:03:11 10° 255° (WSW) 5,836 - -35.6°
Exits shadow 05:14:02 39° 231° (SW) 4,234 10.3 -33.8°
Maximum altitude 05:21:08 50° 188° (S) 3,810 10.3 -32.6°
Drops below altitude 10° 05:38:01 10° 121° (ESE) 5,515 12.1 -29.7°
Sets 05:41:54 0° 116° (ESE) 6,245 12.7 -29.1°
